EHI
0 0 0 0 0 0 0 0 0 0 0 0 1 1 2 2 1 1 2 4 5 6 7 7 5 3 3 2 1 0 0 0 0 0 0 0 0 0 0 0 0 0 0
0 0 0 0 0 0 0 0 0 0 0 0 1 1 1 1 2 2 3 5 5 5 7 9 7 5 4 3 2 1 0 0 0 0 0 0 0 0 0 0 0 0 0
0 0 0 0 0 0 0 0 0 0 0 0 0 0 0 0 2 3 4 5 5 5 7 9 8 6 6 5 3 2 0 0 0 0 0 0 0 0 0 0 0 0 0
0 0 0 0 0 0 0 0 0 0 0 0 0 0 0 1 2 3 3 3 4 5 7 7 5 5 6 6 4 2 0 0 0 0 0 0 0 0 0 0 0 0 0
0 0 0 0 0 0 0 0 0 0 0 0 0 0 0 1 2 2 2 2 3 5 6 5 4 3 3 3 3 2 1 0 0 0 0 0 0 0 0 0 0 0 0
0 0 0 0 0 0 0 0 0 0 0 0 0 0 0 0 1 1 1 1 2 4 4 3 3 1 0 1 2 2 1 0 0 0 0 0 0 0 0 0 0 0 0
0 0 0 0 0 0 0 0 0 0 0 0 0 0 0 0 0 0 0 0 1 3 2 1 1 1 0 0 1 2 1 0 0 0 0 0 0 0 0 0 0 0 0
0 0 0 0 0 0 0 0 0 0 0 0 0 0 0 0 0 0 0 0 1 3 2 1 1 1 0 0 1 1 1 0 0 0 0 0 0 0 0 0 0 0 0
0 0 0 0 0 0 0 0 0 0 0 0 0 0 0 0 0 0 0 0 1 1 1 1 1 1 0 0 0 0 0 0 0 0 0 0 0 0 0 0 0 0 0
0 0 0 0 0 0 0 0 0 0 0 0 0 0 0 0 0 0 0 0 0 0 0 0 0 0 0 0 0 0 0 0 0 0 0 0 0 0 0 0 0 0 0
0 0 0 0 0 0 0 0 0 0 0 0 0 0 0 0 0 0 0 0 0 0 0 0 0 0 0 0 0 0 0 0 0 0 0 0 0 0 0 0 0 0 0
0 0 0 0 0 0 0 0 0 0 0 0 0 0 0 0 0 0 0 0 0 0 0 0 0 0 0 0 0 0 0 0 0 0 0 0 0 0 0 0 0 0 0
0 0 0 0 0 0 0 0 0 0 0 0 0 0 0 0 0 0 0 0 0 0 0 0 0 0 0 0 0 0 0 0 0 0 0 0 0 0 0 0 0 0 0
0 0 0 0 0 0 0 0 0 0 0 0 0 0 0 0 0 0 0 0 0 0 0 0 0 0 0 0 0 0 0 0 0 0 0 0 0 0 0 0 0 0 0
0 0 0 0 0 0 0 0 0 0 0 0 0 0 0 0 0 0 0 0 0 0 0 0 0 0 0 0 0 0 0 0 0 0 0 0 0 0 0 0 0 0 0
0 0 0 0 0 0 0 0 0 0 0 0 0 0 0 0 0 0 0 0 0 0 0 0 0 0 0 0 0 0 0 0 0 0 0 0 0 0 0 0 0 0 0
0 0 0 0 0 0 0 0 0 0 0 0 0 0 0 0 0 0 0 0 0 0 0 0 0 0 0 0 0 0 0 0 0 0 0 0 0 0 0 0 0 0 0
0 0 0 0 0 0 0 0 0 0 0 0 0 0 0 0 0 0 0 0 0 0 0 0 0 0 0 0 0 0 0 0 0 0 0 0 0 0 0 0 0 0 0
0 0 0 0 0 0 0 0 0 0 0 0 0 0 0 0 0 0 0 0 0 0 0 0 0 0 0 0 0 0 0 0 0 0 0 0 0 0 0 0 0 0 0
0 0 0 0 0 0 0 0 0 0 0 0 0 0 0 0 0 0 0 0 0 0 0 0 0 0 0 0 0 0 0 0 0 0 0 0 0 0 0 0 0 0 0
0 0 0 0 0 0 0 0 0 0 0 0 0 0 0 0 0 0 0 0 0 0 0 0 0 0 0 0 0 0 0 0 0 0 0 0 0 0 0 0 0 0 0
0 0 0 0 0 0 0 0 0 0 0 0 0 0 0 0 0 0 0 0 0 0 0 0 0 0 0 0 0 0 0 0 0 0 0 0 0 0 0 0 0 0 0
0 0 0 0 0 0 0 0 0 0 0 0 0 0 0 0 0 0 0 0 0 0 0 0 0 0 0 0 0 0 0 0 0 0 0 0 0 0 0 0 0 0 0
0 0 0 0 0 0 0 0 0 0 0 0 0 0 0 0 0 0 0 0 0 0 0 0 0 0 0 0 0 0 0 0 0 0 0 0 0 0 0 0 0 0 0
0 0 0 0 0 0 0 0 0 0 0 0 0 0 0 0 0 0 0 0 0 0 0 0 0 0 0 0 0 0 0 0 0 0 0 0 0 0 0 0 0 0 0
0 0 0 0 0 0 0 0 0 0 0 0 0 0 0 0 0 0 0 0 0 0 0 0 0 0 0 0 0 0 0 0 0 0 0 0 0 0 0 0 0 0 0
Wind_Speed
12 11 11 10 10 10 10 9 8 7 5 3 4 4 4 4 4 4 5 5 5 5 5 5 5 5 4 4 3 2 3 2 1 1 1 1 2 3 4 3 2 4 6
12 11 11 11 11 11 10 9 9 8 7 5 4 4 5 5 5 3 4 5 5 6 6 6 5 5 5 6 5 4 3 2 2 2 1 1 2 2 3 3 2 2 4
12 12 12 11 11 11 11 10 9 9 8 8 5 5 4 4 4 4 4 4 5 5 6 6 6 6 6 6 7 7 6 4 2 2 3 3 3 2 2 3 3 2 2
10 10 10 11 11 11 10 11 10 10 9 8 6 7 5 5 5 4 4 5 4 4 5 5 6 6 5 6 7 7 6 6 4 2 2 2 3 3 1 2 2 3 3
9 9 10 9 9 10 9 8 9 9 9 9 8 6 6 5 5 5 5 4 3 3 3 5 5 5 5 6 7 7 7 6 6 4 3 2 1 1 2 2 1 1 0
8 8 8 8 7 8 7 8 8 8 8 8 8 8 8 8 7 6 5 3 2 2 2 2 3 4 4 6 7 7 9 7 7 5 5 4 4 3 3 2 1 1 1
7 7 7 7 7 7 7 8 8 8 8 8 8 8 8 8 7 6 5 4 3 2 2 1 1 2 3 4 5 6 6 7 8 7 6 5 5 4 4 3 2 1 0
5 6 6 6 5 6 6 6 7 7 7 8 7 7 8 6 5 6 5 4 3 3 3 2 1 0 1 2 3 4 6 6 7 8 7 5 5 4 4 5 4 3 2
5 5 5 5 5 5 5 5 6 6 7 7 7 7 7 7 7 7 6 4 4 4 4 3 3 2 2 1 0 2 3 4 5 6 7 5 5 5 4 4 4 5 4
5 5 4 4 4 4 3 4 5 6 6 6 6 6 6 7 6 6 8 7 6 5 4 4 4 3 3 2 2 1 1 2 3 3 4 4 4 4 4 4 4 4 4
5 4 3 4 4 4 4 4 5 5 6 6 6 6 6 6 6 6 6 6 6 6 6 6 5 5 4 3 3 2 2 2 2 2 3 4 4 4 4 4 4 3 3
3 3 3 3 4 4 4 4 5 5 4 5 5 5 5 6 7 8 8 7 7 7 7 6 7 7 7 6 4 4 3 3 2 2 3 3 4 4 4 4 4 3 4
3 3 3 2 2 3 4 4 5 5 4 5 5 6 6 6 7 7 8 8 7 7 7 7 7 7 7 7 6 5 3 3 3 3 3 3 4 4 3 4 4 3 3
3 3 2 2 2 2 3 4 4 4 4 4 5 6 6 6 6 7 7 8 8 7 7 7 8 8 8 8 8 6 4 4 4 3 3 3 3 4 4 4 4 4 3
3 4 3 3 2 2 3 3 3 3 4 4 5 6 6 6 6 6 7 7 8 9 8 7 8 8 7 9 9 7 4 3 4 4 3 3 4 5 4 3 3 4 3
4 5 4 4 3 2 3 3 3 3 4 5 5 5 5 6 6 6 6 6 7 7 7 7 7 8 8 13 13 9 4 3 3 3 3 3 4 4 6 7 6 4 4
3 4 4 4 3 3 3 3 2 3 4 5 5 5 5 5 6 7 7 6 6 6 6 6 6 6 8 14 14 13 5 2 3 3 2 2 4 4 3 5 6 5 4
2 3 4 3 3 4 3 2 3 4 5 5 4 4 5 5 5 5 5 6 5 5 5 5 6 5 9 15 15 15 4 2 3 3 3 3 3 5 4 2 5 6 5
2 2 3 4 4 5 4 3 3 5 5 4 4 5 5 5 5 5 5 4 4 4 4 4 5 6 7 14 15 14 4 2 3 3 4 4 4 6 5 4 6 6 5
2 2 3 4 4 4 3 3 4 5 5 4 5 5 4 4 5 5 4 4 3 4 3 3 4 5 5 11 14 13 4 3 3 3 4 7 6 7 6 4 6 7 5
2 1 2 2 3 3 3 3 5 5 5 4 4 4 4 3 3 4 4 4 4 4 4 3 4 4 6 9 13 12 5 4 3 3 3 4 7 7 5 3 4 6 6
3 1 2 1 0 1 3 3 4 4 3 3 2 2 3 3 3 2 3 3 4 4 4 4 4 4 5 7 10 12 8 6 3 3 3 3 6 6 5 4 5 7 6
4 3 1 2 2 1 2 2 3 2 2 2 1 0 1 1 2 3 4 4 4 4 4 4 4 3 4 6 13 12 10 8 4 3 4 4 5 5 5 6 6 5 4
4 4 3 4 2 2 1 0 1 1 3 3 2 1 0 2 2 2 3 3 4 4 4 5 4 4 4 6 7 6 5 5 4 3 3 5 6 5 4 4 4 4 4
5 4 4 2 1 2 2 2 1 2 3 4 4 3 2 1 1 2 2 2 3 2 2 3 4 4 4 6 9 6 4 4 4 2 2 2 2 3 3 3 3 3 4
6 5 5 4 4 3 3 3 2 3 4 2 1 2 2 2 1 2 2 1 1 3 2 1 2 2 3 6 8 9 9 8 7 3 2 2 3 3 3 3 3 3 3
Wind_Direction
2 9 358 353 347 346 346 337 334 338 335 331 316 312 305 296 279 258 249 237 226 228 226 220 209 200 193 196 203 212 223 218 220 210 255 256 203 195 186 199 191 183 167
356 1 359 358 352 350 345 337 345 338 335 330 316 303 299 292 283 276 271 255 232 217 222 219 212 201 189 191 195 197 202 208 199 161 151 271 295 266 194 179 196 218 172
360 0 359 357 357 356 349 347 347 342 341 335 326 319 309 301 299 296 279 264 251 228 212 217 212 204 194 195 194 194 196 195 209 174 158 167 207 243 279 202 182 208 205
4 1 359 359 1 359 355 353 354 353 348 342 338 330 318 308 300 298 288 283 267 245 215 212 214 203 197 197 196 195 187 179 195 205 190 172 149 157 234 280 206 200 201
6 4 3 360 2 0 357 356 355 356 351 347 342 336 327 311 303 305 299 294 287 268 231 213 209 208 199 198 200 193 187 189 187 183 175 175 156 160 157 223 279 327 285
8 6 3 3 6 4 0 360 359 358 354 353 352 350 344 335 333 330 322 315 311 303 297 248 219 210 207 203 204 199 193 195 191 184 179 171 172 181 169 186 183 215 292
9 4 3 0 358 1 1 358 359 357 356 357 357 354 351 344 341 338 333 339 339 329 322 301 246 223 221 216 211 200 198 200 193 191 192 190 190 167 167 172 175 188 260
9 5 2 355 354 2 1 357 356 358 358 356 357 359 358 353 348 348 350 357 346 337 345 349 338 280 255 241 221 205 202 200 200 203 197 190 190 179 176 173 166 175 203
8 4 0 356 358 3 2 354 357 1 359 357 357 0 359 3 2 3 1 0 358 354 6 15 33 46 40 28 308 201 199 190 195 201 195 192 187 183 185 178 170 167 183
4 1 356 357 357 359 360 0 6 10 5 2 7 10 4 4 6 6 6 2 2 1 8 15 36 46 44 45 48 57 112 166 174 179 184 186 174 168 173 177 173 170 166
353 353 356 358 6 3 11 16 11 18 7 4 4 11 7 5 9 11 5 4 6 10 19 22 28 32 33 35 46 45 61 77 128 148 159 172 165 162 163 159 161 170 167
342 357 6 6 17 9 12 28 17 18 14 4 2 10 16 16 18 13 9 12 15 18 24 25 30 31 27 23 26 34 48 58 72 106 130 135 138 142 147 152 161 162 165
350 15 7 14 23 16 19 30 24 12 19 16 12 12 22 20 21 16 12 15 16 21 26 31 32 30 28 21 18 26 43 60 68 79 99 121 131 137 143 148 147 149 157
357 15 10 33 28 43 44 35 23 10 21 26 20 16 24 21 20 17 15 18 18 22 21 31 33 30 31 21 12 9 31 49 59 71 82 96 119 134 144 146 148 147 144
7 13 17 30 4 57 69 57 28 16 24 33 30 20 26 22 18 22 22 22 21 25 22 29 33 29 28 18 11 2 15 44 57 59 64 86 100 111 122 129 140 146 144
15 9 12 27 357 45 67 65 38 29 38 43 37 27 31 24 19 22 21 23 30 24 21 25 31 34 25 10 13 9 2 31 61 62 54 79 102 110 111 107 110 127 149
16 9 5 16 345 42 66 79 53 49 49 49 44 33 35 31 26 23 18 19 30 26 22 22 24 32 23 13 10 2 351 29 63 64 60 51 68 78 95 115 110 88 90
26 14 358 351 7 41 38 89 102 73 59 46 49 48 41 31 25 24 23 20 19 21 21 21 19 22 25 15 9 357 356 49 69 65 56 47 56 52 49 103 105 81 53
37 16 352 350 27 34 13 19 76 80 67 44 40 50 45 32 21 19 19 20 12 11 21 23 23 24 22 17 12 3 350 47 69 77 72 56 59 42 49 98 112 103 81
63 11 338 4 26 18 356 360 64 76 70 51 41 45 49 41 28 12 9 11 14 7 14 22 30 34 27 22 18 10 3 24 48 57 71 59 50 40 44 105 124 121 118
132 294 310 36 29 356 345 23 57 67 73 63 45 37 34 51 57 13 5 15 6 359 8 22 31 40 40 24 20 17 18 8 34 52 55 48 42 42 37 67 117 129 130
168 212 301 13 55 358 351 41 77 82 94 91 63 52 46 29 40 17 8 16 2 5 13 16 23 29 37 28 14 16 24 21 42 49 48 49 43 50 60 66 98 114 113
174 180 222 278 261 115 45 19 92 111 134 135 116 42 104 104 46 17 17 18 15 10 6 11 15 20 30 18 13 9 21 32 44 53 59 61 59 61 68 67 84 99 102
186 178 210 234 230 124 134 34 108 192 204 180 182 229 308 75 77 55 30 35 24 12 4 7 7 11 29 17 3 353 3 22 40 51 62 60 63 72 78 73 74 80 96
182 184 217 228 244 203 185 165 189 260 245 208 190 197 145 102 66 101 67 57 82 75 26 2 357 9 9 357 352 355 360 1 8 7 55 60 58 63 67 69 76 86 94
187 190 197 201 240 235 192 164 170 258 276 268 177 150 153 155 181 161 139 60 108 148 109 42 13 46 24 349 357 1 4 7 9 41 68 67 70 74 81 86 83 85 98